Regional Weather Roundup
Issued by NWS Little Rock, AR

Home | Current Version | Previous Version | Graphics & Text | Print | Product List | Glossary On
Versions: 1 2 3 4 5 6 7 8 9 10 11 12 13 14 15 16 17 18 19 20 21 22 23 24 25 26 27 28 29 30 31 32
000
ASUS44 KLZK 221105
RWRLZK

WEATHER ROUNDUP FOR ARKANSAS
NATIONAL WEATHER SERVICE LITTLE ROCK AR
500 AM CST WED NOV 22 2017

NOTE: "FAIR" INDICATES FEW OR NO CLOUDS BELOW 12,000 FEET WITH NO
SIGNIFICANT WEATHER AND/OR OBSTRUCTIONS TO VISIBILITY.

ARZ001-003-010-029-221200-
NORTHWEST ARKANSAS

CITY           SKY/WX    TMP DP  RH WIND       PRES   REMARKS
FAYETTEVILLE   CLOUDY    28  21  75 N3        30.35F
FORT SMITH     CLEAR     36  22  56 N7        30.36R
HARRISON       CLOUDY    27  19  72 NW5       30.36R WCI  22
BENTONVILLE    CLOUDY    27  20  75 NE6       30.38F WCI  20
ROGERS         CLOUDY    26  19  74 NE5       30.37S WCI  20
SILOAM SPGS    CLOUDY    26  19  74 NE5       30.37S WCI  20
HIGHFILL       CLOUDY    26  19  74 NE5       30.36F WCI  20
$$

ARZ004-005-016-221200-
NORTH CENTRAL ARKANSAS

CITY           SKY/WX    TMP DP  RH WIND       PRES   REMARKS
BATESVILLE     CLOUDY    35  20  54 N8        30.37R WCI  29
FLIPPIN        CLEAR     32  20  61 N7        30.39R WCI  26
MTN HOME       CLEAR     28  20  71 CALM      30.36R
$$

ARZ040-041-221200-
WEST CENTRAL ARKANSAS

CITY           SKY/WX    TMP DP  RH WIND       PRES   REMARKS
MENA           CLEAR     39  28  65 CALM      30.31R
MOUNT IDA      CLEAR     35  31  85 CALM      30.29R
$$

ARZ009-017-025-026-028-221200-
NORTHEAST ARKANSAS

CITY           SKY/WX    TMP DP  RH WIND       PRES   REMARKS
JONESBORO      CLEAR     35  23  61 N10G16    30.35R WCI  27
NEWPORT        CLEAR     35  25  66 NE12      30.37R WCI  27
WALNUT RIDGE     N/A     33  20  58 N10       30.37R WCI  25
BLYTHEVILLE    CLEAR     31  25  78 N15       30.33R WCI  20
$$

ARZ022-023-033-042-044-221200-
CENTRAL ARKANSAS

CITY           SKY/WX    TMP DP  RH WIND       PRES   REMARKS
LITTLE ROCK    CLEAR     41  25  53 N9G20     30.33R
N LITTLE ROCK    N/A     40  24  53 N9        30.35R
JACKSONVILLE   CLEAR     41  23  48 N7        30.32R
SEARCY         CLEAR     38  22  52 N10       30.34R
HOT SPRINGS    CLEAR     44  27  51 CALM      30.30R
RUSSELLVILLE   CLEAR     39  21  48 N6        30.35R
CLINTON        FAIR      36  21  55 N5G12     30.35R
$$

ARZ036-221200-
EAST ARKANSAS

CITY           SKY/WX    TMP DP  RH WIND       PRES   REMARKS
WEST MEMPHIS   CLEAR     35  26  69 N14       30.30R WCI  26
$$

ARZ050-053-066-070-073-221200-
SOUTHWEST ARKANSAS

CITY           SKY/WX    TMP DP  RH WIND       PRES   REMARKS
ARKADELPHIA    FAIR      45  28  51 N13       30.29R
CAMDEN         MOCLDY    46  28  49 N7G14     30.25R
TEXARKANA      CLEAR     44  38  79 N9        30.27R
EL DORADO      CLEAR     47  38  71 N9        30.24R
DE QUEEN       CLEAR     43  34  70 N3        30.28R
$$

ARZ056-057-069-221200-
SOUTHEAST ARKANSAS

CITY           SKY/WX    TMP DP  RH WIND       PRES   REMARKS
PINE BLUFF     CLEAR     43  30  60 N10       30.28R
MONTICELLO     CLEAR     47  30  51 NE9       30.23R

$$






USA.gov is the U.S. government's official web portal to all federal, state and local government web resources and services.